,,,PA_Meas_PMT16A,,PR_Meas_QMR101_102,,RH_Meas_QMH101,,SR_Meas_QMS101,,TA_Meas_QMH101,,GenWind,,GenWind,
date,time,status,PA,status,PR,status,RH,status,SR,status,TA,status,DirAvg,status,SpdAvg,
2009-08-26, 00:00:04,VALID,1010.33,VALID,0,VALID,97.3351,VALID,0,VALID,23.7525,VALID,140,VALID,0.826953,
2009-08-26, 00:01:04,VALID,1010.32,VALID,0,VALID,97.358,VALID,0,VALID,23.7525,VALID,136,VALID,1.03672,
2009-08-26, 00:02:04,VALID,1010.32,VALID,0,VALID,97.3504,VALID,0,VALID,23.7525,VALID,138,VALID,0.929688,
2009-08-26, 00:03:04,VALID,1010.36,VALID,0,VALID,97.3732,VALID,0,VALID,23.7525,VALID,134,VALID,1.19609,
2009-08-26, 00:04:04,VALID,1010.35,VALID,0,VALID,97.3199,VALID,0,VALID,23.772,VALID,129,VALID,1.12773,
2009-08-26, 00:05:04,VALID,1010.37,VALID,0,VALID,97.3199,VALID,0,VALID,23.772,VALID,127,VALID,0.885938,
2009-08-26, 00:06:04,VALID,1010.36,VALID,0,VALID,97.3199,VALID,0,VALID,23.772,VALID,98,VALID,0.736328,
2009-08-26, 00:07:04,VALID,1010.34,VALID,0,VALID,97.3122,VALID,0.105969,VALID,23.7701,VALID,97,VALID,0.761719,
2009-08-26, 00:08:04,VALID,1010.34,VALID,0,VALID,97.2817,VALID,0.105969,VALID,23.7701,VALID,99,VALID,0.862891,
2009-08-26, 00:09:04,VALID,1010.35,VALID,0,VALID,97.2741,VALID,0.105969,VALID,23.7896,VALID,143,VALID,0.748047,
2009-08-26, 00:10:04,VALID,1010.35,VALID,0,VALID,97.2436,VALID,0.105969,VALID,23.7914,VALID,122,VALID,0.725,
2009-08-26, 00:11:04,VALID,1010.33,VALID,0,VALID,97.2207,VALID,0.105969,VALID,23.7914,VALID,129,VALID,0.811328,
2009-08-26, 00:12:04,VALID,1010.32,VALID,0,VALID,97.2131,VALID,0.105969,VALID,23.7701,VALID,127,VALID,0.648047,
2009-08-26, 00:13:04,VALID,1010.33,VALID,0,VALID,97.1597,VALID,0.105969,VALID,23.7507,VALID,92,VALID,1.13906,
2009-08-26, 00:14:04,VALID,1010.31,VALID,0,VALID,97.1292,VALID,0.105969,VALID,23.7507,VALID,104,VALID,1.56797,
2009-08-26, 00:15:04,VALID,1010.28,VALID,0,VALID,97.0606,VALID,0.105969,VALID,23.7683,VALID,134,VALID,0.886328,
2009-08-26, 00:16:04,VALID,1010.26,VALID,0,VALID,97.053,VALID,0.105969,VALID,23.7701,VALID,94,VALID,0.684375,
2009-08-26, 00:17:04,VALID,1010.25,VALID,0,VALID,96.9691,VALID,0.105969,VALID,23.7896,VALID,92,VALID,0.596094,
2009-08-26, 00:18:04,VALID,1010.21,VALID,0,VALID,96.9691,VALID,0.105969,VALID,23.7896,VALID,96,VALID,0.434766,
2009-08-26, 00:19:04,VALID,1010.19,VALID,0,VALID,96.9767,VALID,0.105969,VALID,23.7896,VALID,94,VALID,0.425391,
2009-08-26, 00:20:04,VALID,1010.16,VALID,0,VALID,96.9615,VALID,0.105969,VALID,23.7896,VALID,109,VALID,0.434375,
2009-08-26, 00:21:04,VALID,1010.15,VALID,0,VALID,96.9462,VALID,0.105969,VALID,23.7896,VALID,100,VALID,0.428516,
2009-08-26, 00:22:04,VALID,1010.13,VALID,0,VALID,96.9157,VALID,0,VALID,23.7914,VALID,101,VALID,0.415625,
2009-08-26, 00:23:04,VALID,1010.14,VALID,0,VALID,96.9386,VALID,0.105969,VALID,23.7701,VALID,101,VALID,0.437891,
2009-08-26, 00:24:04,VALID,1010.14,VALID,0,VALID,96.9157,VALID,0.105969,VALID,23.7701,VALID,93,VALID,0.587109,
2009-08-26, 00:25:04,VALID,1010.13,VALID,0,VALID,96.9005,VALID,0.105969,VALID,23.7507,VALID,99,VALID,0.741016,
2009-08-26, 00:26:04,VALID,1010.09,VALID,0,VALID,96.8852,VALID,0,VALID,23.7701,VALID,76,VALID,1.05234,
2009-08-26, 00:27:04,VALID,1010.09,VALID,0,VALID,96.9005,VALID,0.105969,VALID,23.7914,VALID,84,VALID,0.764844,
2009-08-26, 00:28:04,VALID,1010.08,VALID,0,VALID,96.931,VALID,0.105969,VALID,23.7507,VALID,78,VALID,0.938281,
2009-08-26, 00:29:04,VALID,1010.07,VALID,0,VALID,96.8928,VALID,0.105969,VALID,23.7525,VALID,83,VALID,1.18398,
2009-08-26, 00:30:04,VALID,1010.1,VALID,0,VALID,96.9005,VALID,0.105969,VALID,23.7312,VALID,90,VALID,0.599219,
2009-08-26, 00:31:04,VALID,1010.08,VALID,0,VALID,96.8623,VALID,0.105969,VALID,23.7117,VALID,85,VALID,1.30859,
2009-08-26, 00:32:04,VALID,1010.08,VALID,0,VALID,96.8471,VALID,0.105969,VALID,23.6922,VALID,101,VALID,1.09766,
2009-08-26, 00:33:04,VALID,1010.08,VALID,0,VALID,96.8547,VALID,0.105969,VALID,23.6922,VALID,86,VALID,0.871875,
2009-08-26, 00:34:04,VALID,1010.05,VALID,0,VALID,96.8623,VALID,0,VALID,23.694,VALID,80,VALID,0.873828,
2009-08-26, 00:35:04,VALID,1010.05,VALID,0,VALID,96.8776,VALID,0.105969,VALID,23.6727,VALID,81,VALID,0.963281,
2009-08-26, 00:36:04,VALID,1010.05,VALID,0,VALID,96.931,VALID,0.105969,VALID,23.6532,VALID,83,VALID,0.695703,
2009-08-26, 00:37:04,VALID,1010.06,VALID,0,VALID,96.9538,VALID,0,VALID,23.6338,VALID,93,VALID,1.06016,
2009-08-26, 00:38:04,VALID,1010.03,VALID,0,VALID,96.9843,VALID,0.105969,VALID,23.6338,VALID,94,VALID,0.599609,
2009-08-26, 00:39:04,VALID,1010.06,VALID,0,VALID,97.0377,VALID,0.105969,VALID,23.655,VALID,91,VALID,0.416406,
2009-08-26, 00:40:04,VALID,1010.06,VALID,0,VALID,97.0758,VALID,0,VALID,23.6338,VALID,67,VALID,0.491016,
2009-08-26, 00:41:04,VALID,1010.05,VALID,0,VALID,97.0987,VALID,0,VALID,23.6143,VALID,67,VALID,0.367969,
2009-08-26, 00:42:04,VALID,1010.02,VALID,0,VALID,97.1063,VALID,0,VALID,23.6143,VALID,67,VALID,0.276953,
2009-08-26, 00:43:04,VALID,1010.06,VALID,0,VALID,97.1597,VALID,0.105969,VALID,23.5948,VALID,63,VALID,0.394922,
2009-08-26, 00:44:04,VALID,1010.07,VALID,0,VALID,97.1826,VALID,0,VALID,23.6356,VALID,63,VALID,0.207813,
2009-08-26, 00:45:04,VALID,1010.04,VALID,0,VALID,97.1979,VALID,0,VALID,23.6356,VALID,45,VALID,0.375781,
2009-08-26, 00:46:04,VALID,1010.04,VALID,0,VALID,97.2131,VALID,0.105969,VALID,23.5948,VALID,50,VALID,0.66875,
2009-08-26, 00:47:04,VALID,1010,VALID,0,VALID,97.2284,VALID,0.105969,VALID,23.5753,VALID,58,VALID,0.448828,
2009-08-26, 00:48:04,VALID,1010.03,VALID,0,VALID,97.2436,VALID,0,VALID,23.5753,VALID,99,VALID,0.498828,
2009-08-26, 00:49:04,VALID,1009.98,VALID,0,VALID,97.2589,VALID,0.105969,VALID,23.5771,VALID,101,VALID,0.599219,
2009-08-26, 00:50:04,VALID,1009.97,VALID,0,VALID,97.2741,VALID,0.105969,VALID,23.5771,VALID,102,VALID,0.725,
2009-08-26, 00:51:04,VALID,1009.96,VALID,0,VALID,97.3046,VALID,0,VALID,23.5558,VALID,92,VALID,0.559766,
2009-08-26, 00:52:04,VALID,1009.93,VALID,0,VALID,97.3275,VALID,0.105969,VALID,23.5558,VALID,77,VALID,0.402344,
2009-08-26, 00:53:04,VALID,1009.94,VALID,0,VALID,97.3427,VALID,0,VALID,23.5558,VALID,77,VALID,0.513672,
2009-08-26, 00:54:04,VALID,1009.95,VALID,0,VALID,97.3656,VALID,0.105969,VALID,23.5558,VALID,33,VALID,0.404297,
2009-08-26, 00:55:04,VALID,1009.96,VALID,0,VALID,97.358,VALID,0.105969,VALID,23.5576,VALID,47,VALID,0.466797,
2009-08-26, 00:56:04,VALID,1009.91,VALID,0,VALID,97.3885,VALID,0,VALID,23.5558,VALID,67,VALID,0.347266,
2009-08-26, 00:57:04,VALID,1009.94,VALID,0,VALID,97.3809,VALID,0,VALID,23.5363,VALID,67,VALID,1.00312,
2009-08-26, 00:58:04,VALID,1009.92,VALID,0,VALID,97.3732,VALID,0.105969,VALID,23.5363,VALID,72,VALID,0.779297,
2009-08-26, 00:59:04,VALID,1009.89,VALID,0,VALID,97.3732,VALID,0,VALID,23.5381,VALID,72,VALID,0.491797,
2009-08-26, 01:00:04,VALID,1009.88,VALID,0,VALID,97.3732,VALID,0.105969,VALID,23.5363,VALID,72,VALID,0.347656,
2009-08-26, 01:01:04,VALID,1009.88,VALID,0,VALID,97.3961,VALID,0,VALID,23.5381,VALID,72,VALID,0.01875,
2009-08-26, 01:02:04,VALID,1009.88,VALID,0,VALID,97.3961,VALID,0.105969,VALID,23.5169,VALID,72,VALID,0.212891,
2009-08-26, 01:03:04,VALID,1009.84,VALID,0,VALID,97.4037,VALID,0.105969,VALID,23.5169,VALID,61,VALID,0.293359,
2009-08-26, 01:04:04,VALID,1009.84,VALID,0,VALID,97.3961,VALID,0.105969,VALID,23.5169,VALID,61,VALID,0,
2009-08-26, 01:05:04,VALID,1009.79,VALID,0,VALID,97.4037,VALID,0,VALID,23.5169,VALID,61,VALID,0,
2009-08-26, 01:06:04,VALID,1009.77,VALID,0,VALID,97.4037,VALID,0,VALID,23.5363,VALID,61,VALID,0.157031,
2009-08-26, 01:07:04,VALID,1009.77,VALID,0,VALID,97.4037,VALID,0,VALID,23.5186,VALID,61,VALID,0.117578,
2009-08-26, 01:08:04,VALID,1009.76,VALID,0,VALID,97.4114,VALID,0,VALID,23.4974,VALID,61,VALID,0.00898437,
2009-08-26, 01:09:04,VALID,1009.78,VALID,0,VALID,97.4114,VALID,0.105969,VALID,23.5169,VALID,61,VALID,0.421484,
2009-08-26, 01:10:04,VALID,1009.77,VALID,0,VALID,97.419,VALID,0.105969,VALID,23.5381,VALID,61,VALID,0.274609,
2009-08-26, 01:11:04,VALID,1009.74,VALID,0,VALID,97.4037,VALID,0.105969,VALID,23.5169,VALID,61,VALID,0.0132813,
2009-08-26, 01:12:04,VALID,1009.74,VALID,0,VALID,97.4114,VALID,0.105969,VALID,23.4974,VALID,61,VALID,0.212891,
2009-08-26, 01:13:04,VALID,1009.72,VALID,0,VALID,97.3961,VALID,0.105969,VALID,23.5169,VALID,61,VALID,0,
2009-08-26, 01:14:04,VALID,1009.71,VALID,0,VALID,97.4037,VALID,0.105969,VALID,23.5169,VALID,61,VALID,0,
2009-08-26, 01:15:04,VALID,1009.67,VALID,0,VALID,97.4037,VALID,0.105969,VALID,23.5169,VALID,81,VALID,0.522266,
2009-08-26, 01:16:04,VALID,1009.64,VALID,0,VALID,97.419,VALID,0.105969,VALID,23.5169,VALID,99,VALID,0.584375,
2009-08-26, 01:17:04,VALID,1009.66,VALID,0,VALID,97.4114,VALID,0,VALID,23.5169,VALID,99,VALID,0.414063,
2009-08-26, 01:18:04,VALID,1009.65,VALID,0,VALID,97.3809,VALID,0,VALID,23.5381,VALID,99,VALID,0.705859,
2009-08-26, 01:19:04,VALID,1009.69,VALID,0,VALID,97.358,VALID,0,VALID,23.5169,VALID,99,VALID,0.667188,
2009-08-26, 01:20:04,VALID,1009.7,VALID,0,VALID,97.3504,VALID,0,VALID,23.5381,VALID,99,VALID,0.624609,
2009-08-26, 01:21:04,VALID,1009.71,VALID,0,VALID,97.3199,VALID,0,VALID,23.5381,VALID,99,VALID,0.697266,
2009-08-26, 01:22:04,VALID,1009.71,VALID,0,VALID,97.3046,VALID,0,VALID,23.5381,VALID,100,VALID,0.632813,
2009-08-26, 01:23:04,VALID,1009.71,VALID,0,VALID,97.2894,VALID,0.105969,VALID,23.5363,VALID,88,VALID,0.507031,
2009-08-26, 01:24:04,VALID,1009.7,VALID,0,VALID,97.2817,VALID,0.105969,VALID,23.5363,VALID,94,VALID,0.636328,
2009-08-26, 01:25:04,VALID,1009.68,VALID,0,VALID,97.2665,VALID,0,VALID,23.5594,VALID,78,VALID,0.296484,
2009-08-26, 01:26:04,VALID,1009.67,VALID,0,VALID,97.2512,VALID,0,VALID,23.5576,VALID,91,VALID,0.372266,
2009-08-26, 01:27:04,VALID,1009.65,VALID,0,VALID,97.2665,VALID,0,VALID,23.5594,VALID,113,VALID,0.320703,
2009-08-26, 01:28:04,VALID,1009.65,VALID,0,VALID,97.2589,VALID,0,VALID,23.5381,VALID,148,VALID,0.682813,
2009-08-26, 01:29:04,VALID,1009.63,VALID,0,VALID,97.2665,VALID,0,VALID,23.4992,VALID,152,VALID,0.719141,
2009-08-26, 01:30:04,VALID,1009.62,VALID,0,VALID,97.2589,VALID,0,VALID,23.4797,VALID,150,VALID,0.773828,
2009-08-26, 01:31:04,VALID,1009.57,VALID,0,VALID,97.2894,VALID,0,VALID,23.4797,VALID,148,VALID,0.927344,
2009-08-26, 01:32:04,VALID,1009.57,VALID,0,VALID,97.2894,VALID,0,VALID,23.4815,VALID,149,VALID,0.841016,
2009-08-26, 01:33:04,VALID,1009.57,VALID,0,VALID,97.3351,VALID,0,VALID,23.4815,VALID,118,VALID,0.470313,
2009-08-26, 01:34:04,VALID,1009.57,VALID,0,VALID,97.3656,VALID,0,VALID,23.4407,VALID,123,VALID,0.550391,
2009-08-26, 01:35:04,VALID,1009.58,VALID,0,VALID,97.3961,VALID,0,VALID,23.4212,VALID,146,VALID,0.479688,
2009-08-26, 01:36:04,VALID,1009.6,VALID,0,VALID,97.4114,VALID,0,VALID,23.4017,VALID,146,VALID,0.455078,
2009-08-26, 01:37:04,VALID,1009.58,VALID,0,VALID,97.4266,VALID,0.105969,VALID,23.4,VALID,146,VALID,0.35,
2009-08-26, 01:38:04,VALID,1009.58,VALID,0,VALID,97.4648,VALID,0,VALID,23.4,VALID,143,VALID,0.475781,
2009-08-26, 01:39:04,VALID,1009.56,VALID,0,VALID,97.4648,VALID,0.105969,VALID,23.4212,VALID,132,VALID,0.351953,
2009-08-26, 01:40:04,VALID,1009.57,VALID,0,VALID,97.48,VALID,0.105969,VALID,23.4194,VALID,132,VALID,0.361719,
2009-08-26, 01:41:04,VALID,1009.57,VALID,0,VALID,97.5105,VALID,0,VALID,23.4212,VALID,132,VALID,0.223047,
2009-08-26, 01:42:04,VALID,1009.59,VALID,0,VALID,97.5258,VALID,0,VALID,23.4212,VALID,132,VALID,0.213672,
2009-08-26, 01:43:04,VALID,1009.58,VALID,0,VALID,97.5334,VALID,0.105969,VALID,23.4194,VALID,132,VALID,0.425781,
2009-08-26, 01:44:04,VALID,1009.59,VALID,0,VALID,97.5334,VALID,0.105969,VALID,23.4212,VALID,132,VALID,0.297266,
2009-08-26, 01:45:04,VALID,1009.59,VALID,0,VALID,97.5639,VALID,0,VALID,23.4,VALID,132,VALID,0.530469,
2009-08-26, 01:46:04,VALID,1009.57,VALID,0,VALID,97.5715,VALID,0,VALID,23.4,VALID,133,VALID,0.398438,
2009-08-26, 01:47:04,VALID,1009.56,VALID,0,VALID,97.5334,VALID,0.105969,VALID,23.3805,VALID,134,VALID,0.394531,
2009-08-26, 01:48:04,VALID,1009.58,VALID,0,VALID,97.5486,VALID,0,VALID,23.3805,VALID,134,VALID,0.344922,
2009-08-26, 01:49:04,VALID,1009.56,VALID,0,VALID,97.541,VALID,0,VALID,23.3805,VALID,134,VALID,0.427344,
2009-08-26, 01:50:04,VALID,1009.51,VALID,0,VALID,97.5334,VALID,0,VALID,23.3805,VALID,134,VALID,0.0191406,
2009-08-26, 01:51:04,VALID,1009.52,VALID,0,VALID,97.5486,VALID,0,VALID,23.4212,VALID,134,VALID,0,
2009-08-26, 01:52:04,VALID,1009.48,VALID,0,VALID,97.5639,VALID,0,VALID,23.3805,VALID,134,VALID,0,
2009-08-26, 01:53:04,VALID,1009.47,VALID,0,VALID,97.5563,VALID,0.105969,VALID,23.4,VALID,134,VALID,0,
2009-08-26, 01:54:04,VALID,1009.46,VALID,0,VALID,97.5715,VALID,0.105969,VALID,23.4,VALID,113,VALID,0.518359,
2009-08-26, 01:55:04,VALID,1009.46,VALID,0,VALID,97.5486,VALID,0,VALID,23.3805,VALID,108,VALID,0.764844,
2009-08-26, 01:56:04,VALID,1009.43,VALID,0,VALID,97.5563,VALID,0,VALID,23.4017,VALID,104,VALID,0.264453,
2009-08-26, 01:57:04,VALID,1009.42,VALID,0,VALID,97.5715,VALID,0,VALID,23.4,VALID,82,VALID,0.391797,
2009-08-26, 01:58:04,VALID,1009.4,VALID,0,VALID,97.541,VALID,0.105969,VALID,23.4,VALID,41,VALID,0.539844,
2009-08-26, 01:59:04,VALID,1009.42,VALID,0,VALID,97.5334,VALID,0,VALID,23.4017,VALID,54,VALID,0.728516,
2009-08-26, 02:00:04,VALID,1009.41,VALID,0,VALID,97.5258,VALID,0.105969,VALID,23.4212,VALID,85,VALID,0.44375,
2009-08-26, 02:01:04,VALID,1009.39,VALID,0,VALID,97.4953,VALID,0,VALID,23.4212,VALID,48,VALID,0.362891,
2009-08-26, 02:02:04,VALID,1009.4,VALID,0,VALID,97.48,VALID,0.105969,VALID,23.4212,VALID,48,VALID,0,
2009-08-26, 02:03:04,VALID,1009.38,VALID,0,VALID,97.48,VALID,0,VALID,23.4212,VALID,48,VALID,0,
2009-08-26, 02:04:04,VALID,1009.36,VALID,0,VALID,97.4876,VALID,0.105969,VALID,23.3805,VALID,48,VALID,0,
2009-08-26, 02:05:04,VALID,1009.37,VALID,0,VALID,97.4724,VALID,0,VALID,23.4212,VALID,48,VALID,0,
2009-08-26, 02:06:04,VALID,1009.34,VALID,0,VALID,97.4876,VALID,0,VALID,23.4017,VALID,48,VALID,0,
2009-08-26, 02:07:04,VALID,1009.32,VALID,0,VALID,97.4876,VALID,0.105969,VALID,23.3805,VALID,48,VALID,0,
2009-08-26, 02:08:04,VALID,1009.31,VALID,0,VALID,97.5029,VALID,0,VALID,23.4017,VALID,48,VALID,0,
2009-08-26, 02:09:04,VALID,1009.32,VALID,0,VALID,97.5029,VALID,0,VALID,23.4017,VALID,48,VALID,0,
2009-08-26, 02:10:04,VALID,1009.3,VALID,0,VALID,97.5258,VALID,0.105969,VALID,23.3805,VALID,48,VALID,0,
2009-08-26, 02:11:04,VALID,1009.3,VALID,0,VALID,97.5486,VALID,0,VALID,23.4017,VALID,48,VALID,0,
2009-08-26, 02:12:04,VALID,1009.3,VALID,0,VALID,97.5334,VALID,0.105969,VALID,23.3823,VALID,48,VALID,0,
2009-08-26, 02:13:04,VALID,1009.27,VALID,0,VALID,97.541,VALID,0,VALID,23.361,VALID,48,VALID,0.376172,
2009-08-26, 02:14:04,VALID,1009.29,VALID,0,VALID,97.5258,VALID,0,VALID,23.3628,VALID,49,VALID,0.463672,
2009-08-26, 02:15:04,VALID,1009.29,VALID,0,VALID,97.5639,VALID,0.105969,VALID,23.3628,VALID,75,VALID,0.549219,
2009-08-26, 02:16:04,VALID,1009.3,VALID,0,VALID,97.5639,VALID,0,VALID,23.3823,VALID,92,VALID,0.880469,
2009-08-26, 02:17:04,VALID,1009.3,VALID,0,VALID,97.602,VALID,0.105969,VALID,23.3415,VALID,94,VALID,0.690625,
2009-08-26, 02:18:04,VALID,1009.27,VALID,0,VALID,97.5944,VALID,0.105969,VALID,23.3823,VALID,84,VALID,0.775,
2009-08-26, 02:19:04,VALID,1009.26,VALID,0,VALID,97.5868,VALID,0.105969,VALID,23.361,VALID,94,VALID,0.647266,
2009-08-26, 02:20:04,VALID,1009.28,VALID,0,VALID,97.5791,VALID,0.105969,VALID,23.3823,VALID,96,VALID,0.45625,
2009-08-26, 02:21:04,VALID,1009.27,VALID,0,VALID,97.5639,VALID,0,VALID,23.361,VALID,78,VALID,0.675781,
2009-08-26, 02:22:04,VALID,1009.24,VALID,0,VALID,97.5868,VALID,0.105969,VALID,23.3415,VALID,69,VALID,0.571875,
2009-08-26, 02:23:04,VALID,1009.27,VALID,0,VALID,97.5715,VALID,0,VALID,23.3415,VALID,69,VALID,0.303906,
2009-08-26, 02:24:04,VALID,1009.24,VALID,0,VALID,97.5791,VALID,0.105969,VALID,23.3628,VALID,71,VALID,0.444531,
2009-08-26, 02:25:04,VALID,1009.21,VALID,0,VALID,97.5868,VALID,0.105969,VALID,23.3415,VALID,68,VALID,0.453516,
2009-08-26, 02:26:04,VALID,1009.21,VALID,0,VALID,97.602,VALID,0.105969,VALID,23.3415,VALID,68,VALID,0.548437,
2009-08-26, 02:27:04,VALID,1009.23,VALID,0,VALID,97.5944,VALID,0.105969,VALID,23.322,VALID,106,VALID,0.775391,
2009-08-26, 02:28:04,VALID,1009.23,VALID,0,VALID,97.6096,VALID,0.105969,VALID,23.3415,VALID,97,VALID,0.560156,
2009-08-26, 02:29:04,VALID,1009.22,VALID,0,VALID,97.6096,VALID,0.105969,VALID,23.3628,VALID,97,VALID,0.375781,
2009-08-26, 02:30:04,VALID,1009.24,VALID,0,VALID,97.5868,VALID,0.105969,VALID,23.3628,VALID,97,VALID,0.266016,
2009-08-26, 02:31:04,VALID,1009.24,VALID,0,VALID,97.602,VALID,0.105969,VALID,23.3628,VALID,124,VALID,0.799609,
2009-08-26, 02:32:04,VALID,1009.23,VALID,0,VALID,97.6096,VALID,0.105969,VALID,23.3415,VALID,121,VALID,0.542188,
2009-08-26, 02:33:04,VALID,1009.27,VALID,0,VALID,97.5944,VALID,0.105969,VALID,23.3415,VALID,122,VALID,0.569922,
2009-08-26, 02:34:04,VALID,1009.27,VALID,0,VALID,97.5944,VALID,0.105969,VALID,23.3433,VALID,110,VALID,1.41328,
2009-08-26, 02:35:04,VALID,1009.3,VALID,0,VALID,97.5944,VALID,0.105969,VALID,23.3628,VALID,127,VALID,1.03555,
2009-08-26, 02:36:04,VALID,1009.3,VALID,0,VALID,97.5868,VALID,0.105969,VALID,23.3628,VALID,147,VALID,0.889063,
2009-08-26, 02:37:04,VALID,1009.34,VALID,0,VALID,97.541,VALID,0,VALID,23.3238,VALID,135,VALID,0.769922,
2009-08-26, 02:38:04,VALID,1009.35,VALID,0,VALID,97.5715,VALID,0,VALID,23.3043,VALID,171,VALID,0.731641,
2009-08-26, 02:39:04,VALID,1009.35,VALID,0,VALID,97.5715,VALID,0,VALID,23.3256,VALID,159,VALID,0.648438,
2009-08-26, 02:40:04,VALID,1009.35,VALID,0,VALID,97.5639,VALID,0,VALID,23.2866,VALID,156,VALID,0.29375,
2009-08-26, 02:41:04,VALID,1009.33,VALID,0,VALID,97.5791,VALID,0,VALID,23.2654,VALID,156,VALID,0,
2009-08-26, 02:42:04,VALID,1009.33,VALID,0,VALID,97.5868,VALID,0,VALID,23.2866,VALID,157,VALID,0,
2009-08-26, 02:43:04,VALID,1009.32,VALID,0,VALID,97.5944,VALID,0,VALID,23.2671,VALID,150,VALID,0,
2009-08-26, 02:44:04,VALID,1009.3,VALID,0,VALID,97.602,VALID,0,VALID,23.2459,VALID,125,VALID,0.698828,
2009-08-26, 02:45:04,VALID,1009.34,VALID,0,VALID,97.6173,VALID,0,VALID,23.2459,VALID,125,VALID,0.351563,
2009-08-26, 02:46:04,VALID,1009.33,VALID,0,VALID,97.6249,VALID,0,VALID,23.2264,VALID,125,VALID,0.372656,
2009-08-26, 02:47:04,VALID,1009.31,VALID,0,VALID,97.6401,VALID,0,VALID,23.2264,VALID,125,VALID,0.262891,
2009-08-26, 02:48:04,VALID,1009.34,VALID,0,VALID,97.6554,VALID,0,VALID,23.2459,VALID,125,VALID,0.714453,
2009-08-26, 02:49:04,VALID,1009.34,VALID,0,VALID,97.6478,VALID,0,VALID,23.2476,VALID,132,VALID,0.437109,
2009-08-26, 02:50:04,VALID,1009.35,VALID,0,VALID,97.663,VALID,0,VALID,23.2476,VALID,134,VALID,0.303906,
2009-08-26, 02:51:04,VALID,1009.35,VALID,0,VALID,97.6706,VALID,0,VALID,23.2671,VALID,134,VALID,0.4,
2009-08-26, 02:52:04,VALID,1009.34,VALID,0,VALID,97.6783,VALID,0.105969,VALID,23.2246,VALID,156,VALID,0.627734,
2009-08-26, 02:53:04,VALID,1009.34,VALID,0,VALID,97.6859,VALID,0.105969,VALID,23.2246,VALID,147,VALID,0.350391,
2009-08-26, 02:54:04,VALID,1009.34,VALID,0,VALID,97.6859,VALID,0,VALID,23.2459,VALID,147,VALID,0.540234,
2009-08-26, 02:55:04,VALID,1009.32,VALID,0,VALID,97.6935,VALID,0.105969,VALID,23.2246,VALID,147,VALID,0.284375,
2009-08-26, 02:56:04,VALID,1009.32,VALID,0,VALID,97.7012,VALID,0.105969,VALID,23.2441,VALID,146,VALID,0.603906,
2009-08-26, 02:57:04,VALID,1009.33,VALID,0,VALID,97.7164,VALID,0.105969,VALID,23.2246,VALID,132,VALID,0.479688,
2009-08-26, 02:58:04,VALID,1009.32,VALID,0,VALID,97.724,VALID,0.105969,VALID,23.2246,VALID,130,VALID,0.645703,
2009-08-26, 02:59:04,VALID,1009.31,VALID,0,VALID,97.7317,VALID,0.105969,VALID,23.2654,VALID,130,VALID,0.608984,
2009-08-26, 03:00:04,VALID,1009.28,VALID,0,VALID,97.7469,VALID,0.105969,VALID,23.2441,VALID,106,VALID,0.683984,
2009-08-26, 03:01:04,VALID,1009.29,VALID,0,VALID,97.7469,VALID,0.105969,VALID,23.2441,VALID,102,VALID,0.509766,
2009-08-26, 03:02:04,VALID,1009.29,VALID,0,VALID,97.7622,VALID,0.105969,VALID,23.2636,VALID,100,VALID,0.332031,
2009-08-26, 03:03:04,VALID,1009.29,VALID,0,VALID,97.7698,VALID,0.105969,VALID,23.2636,VALID,85,VALID,0.462109,
2009-08-26, 03:04:04,VALID,1009.31,VALID,0,VALID,97.7622,VALID,0.105969,VALID,23.2636,VALID,81,VALID,0.592578,
2009-08-26, 03:05:04,VALID,1009.33,VALID,0,VALID,97.7317,VALID,0.105969,VALID,23.2848,VALID,81,VALID,0.594531,
2009-08-26, 03:06:04,VALID,1009.33,VALID,0,VALID,97.7393,VALID,0.105969,VALID,23.3043,VALID,81,VALID,0.377734,
2009-08-26, 03:07:04,VALID,1009.32,VALID,0,VALID,97.724,VALID,0,VALID,23.3061,VALID,81,VALID,0.430078,
2009-08-26, 03:08:04,VALID,1009.31,VALID,0,VALID,97.7317,VALID,0,VALID,23.2654,VALID,81,VALID,0.737891,
2009-08-26, 03:09:04,VALID,1009.3,VALID,0,VALID,97.724,VALID,0,VALID,23.2654,VALID,65,VALID,0.745313,
2009-08-26, 03:10:04,VALID,1009.32,VALID,0,VALID,97.7088,VALID,0,VALID,23.2654,VALID,90,VALID,0.470313,
2009-08-26, 03:11:04,VALID,1009.31,VALID,0,VALID,97.6935,VALID,0,VALID,23.2459,VALID,81,VALID,0.848437,
2009-08-26, 03:12:04,VALID,1009.28,VALID,0,VALID,97.7088,VALID,0,VALID,23.2654,VALID,93,VALID,0.891406,
2009-08-26, 03:13:04,VALID,1009.3,VALID,0,VALID,97.6859,VALID,0,VALID,23.2866,VALID,85,VALID,0.671094,
2009-08-26, 03:14:04,VALID,1009.26,VALID,0,VALID,97.6859,VALID,0,VALID,23.2459,VALID,80,VALID,0.784766,
2009-08-26, 03:15:04,VALID,1009.24,VALID,0,VALID,97.6935,VALID,0,VALID,23.2459,VALID,80,VALID,0.471484,
2009-08-26, 03:16:04,VALID,1009.24,VALID,0,VALID,97.6706,VALID,0,VALID,23.2264,VALID,78,VALID,0.464063,
2009-08-26, 03:17:04,VALID,1009.2,VALID,0,VALID,97.6706,VALID,0,VALID,23.2282,VALID,66,VALID,0.637109,
2009-08-26, 03:18:04,VALID,1009.19,VALID,0,VALID,97.663,VALID,0,VALID,23.2282,VALID,71,VALID,0.701172,
2009-08-26, 03:19:04,VALID,1009.18,VALID,0,VALID,97.663,VALID,0,VALID,23.2087,VALID,82,VALID,0.365234,
2009-08-26, 03:20:04,VALID,1009.15,VALID,0,VALID,97.6478,VALID,0,VALID,23.1874,VALID,83,VALID,0.381641,
2009-08-26, 03:21:04,VALID,1009.13,VALID,0,VALID,97.6706,VALID,0,VALID,23.2087,VALID,48,VALID,0.361719,
2009-08-26, 03:22:04,VALID,1009.11,VALID,0,VALID,97.6783,VALID,0,VALID,23.1679,VALID,76,VALID,0.429297,
2009-08-26, 03:23:04,VALID,1009.09,VALID,0,VALID,97.663,VALID,0,VALID,23.1485,VALID,37,VALID,0.441016,
2009-08-26, 03:24:04,VALID,1009.08,VALID,0,VALID,97.6859,VALID,0,VALID,23.1502,VALID,37,VALID,0.505469,
2009-08-26, 03:25:04,VALID,1009.13,VALID,0,VALID,97.6935,VALID,0,VALID,23.1697,VALID,48,VALID,0.3125,
2009-08-26, 03:26:04,VALID,1009.12,VALID,0,VALID,97.7012,VALID,0,VALID,23.1502,VALID,48,VALID,0.298438,
2009-08-26, 03:27:04,VALID,1009.12,VALID,0,VALID,97.7164,VALID,0,VALID,23.1095,VALID,78,VALID,0.369141,
2009-08-26, 03:28:04,VALID,1009.14,VALID,0,VALID,97.7317,VALID,0,VALID,23.1095,VALID,91,VALID,1.08125,
2009-08-26, 03:29:04,VALID,1009.15,VALID,0,VALID,97.7317,VALID,0,VALID,23.1095,VALID,75,VALID,0.774219,
2009-08-26, 03:30:04,VALID,1009.18,VALID,0,VALID,97.7469,VALID,0,VALID,23.1112,VALID,86,VALID,0.613672,
2009-08-26, 03:31:04,VALID,1009.21,VALID,0,VALID,97.724,VALID,0,VALID,23.1112,VALID,102,VALID,0.883984,
2009-08-26, 03:32:04,VALID,1009.21,VALID,0,VALID,97.7393,VALID,0,VALID,23.1112,VALID,90,VALID,0.957422,
2009-08-26, 03:33:04,VALID,1009.21,VALID,0,VALID,97.7469,VALID,0,VALID,23.09,VALID,98,VALID,1.14727,
2009-08-26, 03:34:04,VALID,1009.19,VALID,0,VALID,97.7393,VALID,0,VALID,23.1112,VALID,86,VALID,0.616016,
2009-08-26, 03:35:04,VALID,1009.18,VALID,0,VALID,97.7545,VALID,0,VALID,23.09,VALID,78,VALID,0.663672,
2009-08-26, 03:36:04,VALID,1009.16,VALID,0,VALID,97.7545,VALID,0,VALID,23.1307,VALID,71,VALID,0.413281,
2009-08-26, 03:37:04,VALID,1009.16,VALID,0,VALID,97.7469,VALID,0,VALID,23.1095,VALID,67,VALID,0.744531,
2009-08-26, 03:38:05,VALID,1009.11,VALID,0,VALID,97.724,VALID,0,VALID,23.129,VALID,84,VALID,0.515625,
2009-08-26, 03:39:05,VALID,1009.09,VALID,0,VALID,97.7317,VALID,0,VALID,23.1095,VALID,73,VALID,0.854688,
2009-08-26, 03:40:05,VALID,1009.12,VALID,0,VALID,97.7088,VALID,0.105969,VALID,23.0883,VALID,74,VALID,0.612109,